Proserpine, Australia

10:06 PM AEST on August 17, 2017 (GMT +1000)
Whitsunday

Weather History for YBPN - March, 2014

Change the Weather History Date:

Thursday, March 6, 2014

  Actual Average Record
Temperature  
Mean Temperature 76 °F -  
Max Temperature 83 °F - - ()
Min Temperature 69 °F - - ()
Cooling Degree Days 11    
Growing Degree Days 26 (Base 50)    
Moisture  
Dew Point 68 °F    
Average Humidity 75    
Maximum Humidity 94    
Minimum Humidity 48    
Precipitation  
Precipitation 0.00 in - - ()
Sea Level Pressure  
Sea Level Pressure 29.90 in    
Wind  
Wind Speed 9 mph ()    
Max Wind Speed 21 mph    
Max Gust Speed -    
Visibility 6.2 miles    
Events      
T = Trace of Precipitation, MM = Missing Value Source: Averaged Metar Reports

Daily Weather History Graph

Daily Weather History Graph

Search for Another Location

Airport or City:

Trip Planner

Search our weather history database for the weather conditions in past years. The results will help you decide how hot, cold, wet, or windy it might be!

Date:

Astronomy

Mar. 06, 2014 Rise Set
Actual Time 6:04 AM AEST 6:29 PM AEST
Civil Twilight 5:42 AM AEST 6:51 PM AEST
Nautical Twilight 5:16 AM AEST 7:17 PM AEST
Astronomical Twilight 4:50 AM AEST 7:43 PM AEST
Moon 10:31 AM AEST (3/6) 10:04 PM AEST (3/6)
Length of Visible Light 13h 08m
Length of Day
12h 24m
Waxing Crescent, 26% of the Moon is Illuminated
Mar 6
Waxing Crescent
Mar 8
First Quarter
Mar 17
Full
Mar 24
Last Quarter
Mar 31
New

Hourly Weather History & Observations

Time (AEST) Temp. Heat Index Dew Point Humidity Pressure Visibility Wind Dir Wind Speed Gust Speed Precip Events Conditions
12:00 AM 70 °F - 67 °F 89% 29.93 in - SSW 5.8 mph - -  
12:00 AM 69.8 °F - 68.0 °F 94% 29.92 in 6.2 mi SSW 5.8 mph - N/A   Scattered Clouds
1:00 AM 69.8 °F - 68.0 °F 94% 29.89 in 6.2 mi SSW 6.9 mph - N/A   Mostly Cloudy
2:00 AM 71.6 °F - 69.8 °F 94% 29.89 in 6.2 mi ESE 1.2 mph - N/A   Overcast
3:00 AM 71 °F - 69 °F 93% 29.88 in - Calm Calm - -   Overcast
3:00 AM 71.6 °F - 69.8 °F 94% 29.86 in 6.2 mi Calm Calm - N/A   Overcast
4:00 AM 71.6 °F - 68.0 °F 88% 29.86 in 6.2 mi South 6.9 mph - N/A   Mostly Cloudy
5:00 AM 69.8 °F - 68.0 °F 94% 29.86 in 6.2 mi South 9.2 mph - N/A   Unknown
6:00 AM 71 °F - 68 °F 87% 29.89 in - South 9.2 mph - -  
6:00 AM 69.8 °F - 68.0 °F 94% 29.89 in 6.2 mi South 9.2 mph - N/A   Unknown
7:00 AM 71.6 °F - 68.0 °F 88% 29.89 in 6.2 mi South 8.1 mph - N/A   Unknown
8:00 AM 75.2 °F - 68.0 °F 78% 29.92 in 6.2 mi South 11.5 mph - N/A   Scattered Clouds
9:00 AM 78 °F - 69 °F 66% 29.94 in 6 mi SSE 12.7 mph - -   Partly Cloudy
9:00 AM 77.0 °F - 69.8 °F 78% 29.92 in 6.2 mi SE 15.0 mph - N/A   Mostly Cloudy
10:00 AM 82.4 °F 86.3 °F 69.8 °F 66% 29.92 in 6.2 mi SE 16.1 mph - N/A   Scattered Clouds
11:00 AM 82.4 °F 85.4 °F 68.0 °F 62% 29.92 in 6.2 mi ESE 16.1 mph - N/A   Scattered Clouds
12:00 PM 83 °F - 68 °F 51% 29.92 in - ESE 17.3 mph - -  
12:00 PM 82.4 °F 85.4 °F 68.0 °F 62% 29.92 in 6.2 mi ESE 18.4 mph - N/A   Scattered Clouds
1:00 PM 82.4 °F 85.4 °F 68.0 °F 62% 29.89 in 6.2 mi ESE 18.4 mph - N/A   Mostly Cloudy
2:00 PM 82.4 °F 85.4 °F 68.0 °F 62% 29.86 in 6.2 mi ESE 20.7 mph - N/A   Scattered Clouds
3:00 PM 82 °F - 65 °F 48% 29.87 in - ESE 17.3 mph - -  
3:00 PM 82.4 °F 84.6 °F 66.2 °F 58% 29.86 in 6.2 mi ESE 17.3 mph - N/A   Unknown
4:00 PM 82.4 °F 83.9 °F 64.4 °F 54% 29.86 in 6.2 mi ESE 18.4 mph - N/A   Unknown
5:00 PM 80.6 °F 83.2 °F 68.0 °F 65% 29.89 in 6.2 mi ESE 17.3 mph - N/A   Unknown
6:00 PM 79 °F - 66 °F 57% 29.90 in - SE 16.1 mph - -  
6:00 PM 78.8 °F - 66.2 °F 65% 29.89 in 6.2 mi ESE 16.1 mph - N/A   Unknown
7:00 PM 77.0 °F - 68.0 °F 74% 29.92 in 6.2 mi SE 11.5 mph - N/A   Unknown
8:00 PM 75.2 °F - 66.2 °F 73% 29.92 in 6.2 mi SSE 8.1 mph - N/A   Unknown
9:00 PM 74 °F - 66 °F 70% 29.94 in - South 9.2 mph - -  
9:00 PM 73.4 °F - 66.2 °F 78% 29.92 in 6.2 mi South 9.2 mph - N/A   Scattered Clouds
10:00 PM 73.4 °F - 66.2 °F 78% 29.95 in 6.2 mi South 9.2 mph - N/A   Unknown
11:00 PM 73.4 °F - 68.0 °F 83% 29.92 in 6.2 mi South 10.4 mph - N/A   Unknown